Regional Weather Roundup
Issued by NWS Goodland, KS

Home | Current Version | Previous Version | Graphics & Text | Print | Product List | Glossary On
Versions: 1 2 3 4 5 6 7 8 9 10 11 12 13 14 15 16 17 18 19 20 21 22 23 24 25 26 27 28 29 30 31 32 33 34 35 36 37 38 39 40 41 42 43 44 45 46 47 48 49 50
000
ASUS43 KGLD 220159
RWRGLD

GOODLAND FORECAST AREA HOURLY WEATHER ROUNDUP
NATIONAL WEATHER SERVICE GOODLAND KS
800 PM MDT THU AUG 21 2014

...OFFICIAL OBSERVATIONS...

CITY           SKY/WX    TMP DP  RH WIND       PRES   REMARKS
GOODLAND KS    CLEAR     77  51  40 E6        29.98S
HILL CITY KS   CLEAR     87  65  47 NE10      29.87R
IMPERIAL NEB   CLEAR     83  56  39 CALM      29.96R
MCCOOK NEB     CLEAR     81  66  60 E8        29.91R
AKRON CO       MOCLDY    77  51  40 S3        30.07R
BURLINGTON CO  PTCLDY    77  48  35 E5        30.01S
LIMON CO       MOCLDY    73  48  41 NE8       30.09R
$$

...UNOFFICIAL OBSERVATIONS...

CITY           SKY/WX    TMP DP  RH WIND       PRES   REMARKS
COLBY KS       CLEAR     84  57  39 CALM      29.95S
LENORA KS        N/A     83  32  16 CALM        N/A
NORTON KS      CLEAR     81  63  54 NE7       29.89R
SHARON SPRINGS   N/A     84  58  41 CALM        N/A
WAKEENEY KS      N/A     86  56  35 MISG        N/A
KIT CARSON CO    N/A     83  49  30 MISG        N/A
YUMA CO          N/A     78  53  41 E5          N/A
$$


USA.gov is the U.S. government's official web portal to all federal, state and local government web resources and services.